Terug naar catalogus

STARS-AO

ActiefAmateurradioPO
NORAD 43679·PAYLOAD·🇯🇵 Japan

Gelanceerd Oct 29, 2018 vanaf Tanegashima Space Center

Loading…

Volgende Passages (komende 24 uur)

TLE

VersSource: Space-Track

Epoch: Sep 14, 2026, 08:32 UTC

1 43679U 18084J   26257.35577893  .00004680  00000-0  23461-3 0  9996
2 43679  98.0373 116.8344 0001482 173.7371 186.3880 15.17892386430991

Volg STARS-AO in realtime met AllMySat

Download on the App Store